This demonstration page uses our WeatherBlox Daily Observations layout. Learn more.

Left ArrowRight Arrow

38.80484, -77.04692

Hourly Observations for December 23, 2021

Temp ( °F °C ) Dew Point ( °F °C ) Humidity (%) Winds ( mph kmh ) Pressure ( in mb ) Visibility ( mi km ) Precip ( " mm )
12:52 am 00:52 Clear 32 0 15 -9.4 50 50 NNW 9 15 30.11 1020 10 16 0.00 0.00
1:52 am 01:52 Clear 32 0 14 -10 47 47 NW 9 15 30.14 1021 10 16 0.00 0.00
2:52 am 02:52 Clear 31 -0.6 15 -9.4 52 52 N 5 7 30.18 1022 10 16 0.00 0.00
3:52 am 03:52 Clear 30 -1.1 15 -9.4 54 54 NNW 6 9 30.19 1022 10 16 0.00 0.00
4:52 am 04:52 Clear 30 -1.1 14 -10 51 51 NNW 6 9 30.19 1023 10 16 0.00 0.00
5:52 am 05:52 Clear 30 -1.1 14 -10 51 51 N 5 7 30.22 1023 10 16 0.00 0.00
6:52 am 06:52 Clear 31 -0.6 14 -10 49 49 NNW 5 7 30.25 1024 10 16 0.00 0.00
7:52 am 07:52 Mostly Sunny 30 -1.1 15 -9.4 54 54 N 8 13 30.27 1025 10 16 0.00 0.00
8:52 am 08:52 Mostly Sunny 33 0.6 16 -8.9 49 49 N 9 15 30.29 1026 10 16 0.00 0.00
9:52 am 09:52 Partly Cloudy 34 1.1 16 -8.9 48 48 NNW 12 19 30.31 1026 10 16 0.00 0.00
10:52 am 10:52 Mostly Sunny 37 2.8 16 -8.9 42 42 NW 8 13 30.30 1026 10 16 0.00 0.00
11:52 am 11:52 Partly Cloudy 40 4.4 17 -8.3 40 40 VRB 7 11 30.28 1025 10 16 0.00 0.00
12:52 pm 12:52 Mostly Sunny 40 4.4 16 -8.9 38 38 VRB 7 11 30.26 1025 10 16 0.00 0.00
1:52 pm 13:52 Partly Cloudy 41 5 17 -8.3 38 38 ENE 3 6 30.24 1024 10 16 0.00 0.00
2:52 pm 14:52 Mostly Sunny 42 5.6 17 -8.3 36 36 ENE 5 7 30.22 1023 10 16 0.00 0.00
3:52 pm 15:52 Sunny 41 5 18 -7.8 39 39 S 3 6 30.23 1024 10 16 0.00 0.00
4:16 pm 16:16 Mostly Sunny 40 4.4 19 -7.2 43 43 S 6 9 30.23 1024 10 16 0.00 0.00
4:52 pm 16:52 Mostly Clear 39 3.9 19 -7.2 45 45 S 9 15 30.21 1023 10 16 0.00 0.00
5:52 pm 17:52 Clear 38 3.3 20 -6.7 48 48 SSE 6 9 30.20 1023 10 16 0.00 0.00
6:52 pm 18:52 Partly Cloudy 38 3.3 22 -5.6 52 52 S 9 15 30.20 1023 10 16 0.00 0.00
7:52 pm 19:52 Mostly Cloudy 38 3.3 20 -6.7 48 48 S 8 13 30.19 1022 10 16 0.00 0.00
8:52 pm 20:52 Partly Cloudy 38 3.3 22 -5.6 52 52 S 10 17 30.17 1022 10 16 0.00 0.00
9:52 pm 21:52 Partly Cloudy 38 3.3 23 -5 55 55 S 13 20 30.16 1022 10 16 0.00 0.00
10:52 pm 22:52 Cloudy 38 3.3 24 -4.4 57 57 S 14 22 30.13 1020 10 16 0.00 0.00
11:52 pm 23:52 Cloudy 39 3.9 23 -5 53 53 S 15 24 30.10 1019 10 16 0.00 0.00

Powered by AerisWeather